sat.trackr.live / text

‹ back to catalog

TEN-KOH 2

NORAD 68261 · 2025-241B

PAYLOAD ACTIVE UNKNOWN

§ Identity

Operator
Country
JPN
Launch date
2025-10-26
Launch site
TANSC
Launch vehicle
Mass (kg)
RCS (m²)

External: N2YO · Heavens-Above · Gunter

§ Orbital elements

Epoch: 2026-05-25T01:27:45.345600Z

Period
94.51 min
Inclination
51.6618°
Eccentricity
0.0006643
Mean motion
15.23568436 rev/d
Perigee alt
490.5 km
Apogee alt
499.7 km
Semi-major
6,873.2 km
B*
3.2072e-4
RAAN
69.6677°
Arg perigee
73.9925°
Mean anomaly
286.1785°
Rev number
1,138

§ Raw data

TEN-KOH 21 68261U 25241B   26145.06094150  .00007450  00000+0  32072-3 0  99922 68261  51.6618  69.6677 0006643  73.9925 286.1785 15.23568436 11380

JSON: /api/v1/satellites/68261 · /tle

For live sub-satellite position, see the globe view (requires WebGL).

§ Visibility from observer

Set your observer location to see the next 7 days of passes ≥ 10°. The values pass through the URL so the page stays shareable.

No JS? Fill the form by hand. The geolocation button needs JavaScript.

§ Radio — SatNOGS DB

ModeDescriptionDownlinkUplink
CW CW 5.839 GHz
CW CW 435.860 MHz
AFSK Mode U - AFSK1k2 - Transmitter (inactive) 435.860 MHz
FM Mode U - FM - Digitalker (inactive) 435.860 MHz
GMSK Mode U - GMSK4k8 - Telemetry, Photos, Pictures (inactive) 435.895 MHz
GMSK Mode U - GMSK9k6 - Transmitter (inactive) 435.860 MHz
USB V/U Linear Transponder (inactive) 435.875 MHz–435.915 MHz 145.895 MHz–145.935 MHz

7 transmitters · refreshed weekly from db.satnogs.org